Regional Weather Roundup
Issued by NWS

Home | Current Version | Previous Version | Graphics & Text | Print | Product List | Glossary On
Versions: 1 2 3 4 5 6 7 8 9 10 11 12 13 14 15 16 17 18 19 20 21 22 23 24 25 26 27 28 29 30 31 32 33 34 35 36 37 38 39 40 41 42 43 44 45 46 47 48 49 50
573
ASUS45 KTFX 221110
RWRMT
MONTANA REGIONAL WEATHER ROUNDUP
NATIONAL WEATHER SERVICE GREAT FALLS MT
500 AM MDT THU JUN 22 2017

NOTE: "FAIR" INDICATES FEW OR NO CLOUDS BELOW 12000 FEET WITH NO
SIGNIFICANT WEATHER AND/OR OBSTRUCTIONS TO VISIBILITY.

MTZ001>007-043-221200-
WEST OF THE DIVIDE

CITY           SKY/WX    TMP DP  RH WIND       PRES   REMARKS
KALISPELL      CLEAR     44  35  70 SW5       30.08R
MISSOULA       CLEAR     46  34  62 W6        30.10R
BUTTE          CLEAR     47  25  42 CALM      30.15S
MULLAN PASS    CLEAR     42  25  50 NW8       30.17S
DEER LODGE       N/A     45  28  53 CALM      30.14S
EUREKA           N/A     39  30  70 MISG      30.10R
HAMILTON         N/A     48  30  49 S6        30.12S
LIBBY            N/A     45  32  61 S3        30.09S
$$

MTZ008-052>055-221200-
SOUTHWEST MONTANA

CITY           SKY/WX    TMP DP  RH WIND       PRES   REMARKS
BOZEMAN        CLEAR     48  30  49 SW8       30.10R
DILLON         CLEAR     43  32  65 SE6       30.12R
W YELLOWSTONE  CLEAR     36  32  87 CALM      30.13R
ENNIS          CLEAR     41  32  70 NE6       30.16S
THREE FORKS      N/A     52  24  33 CALM      30.07R
$$

MTZ009-010-012-014-046-048-049-054-221200-
EAST SLOPES AND CENTRAL MONTANA

CITY           SKY/WX    TMP DP  RH WIND       PRES   REMARKS
CUT BANK       CLEAR     42  39  89 W9        30.05S
GREAT FALLS    CLOUDY    49  38  65 NE5       30.04R
MALMSTROM AFB  CLOUDY    47  40  76 S7        30.03S
HELENA         CLEAR     58  26  29 W18G25    30.05S
CHOTEAU          N/A     46  37  71 NW6       30.07R
CONRAD           N/A     51  45  80 W2        30.06R
$$

MTZ011-013-016-021-045-047-050-051-221200-
NORTH CENTRAL MONTANA

CITY           SKY/WX    TMP DP  RH WIND       PRES   REMARKS
HAVRE          MOCLDY    44  40  85 SW9       29.98F
LEWISTOWN      CLOUDY    44  38  79 CALM      30.03R
N BAR RANCH      N/A     43  36  75 W5        30.05S
CHINOOK          N/A     45  41  87 CALM      29.97F
FORT BENTON      N/A     54  43  66 MISG      30.04R
$$

MTZ017>020-022>027-061-062-221200-
NORTHEAST MONTANA

CITY           SKY/WX    TMP DP  RH WIND       PRES   REMARKS
GLASGOW        MOCLDY    48  42  80 W5        29.92S
JORDAN           N/A     47  41  80 SW6       29.94S
SIDNEY         CLOUDY    57  45  64 W10       29.87R
WOLF POINT     PTCLDY    52  47  83 W10       29.90R
MALTA          MOCLDY    50  43  76 W9G17     29.96R
PLENTYWOOD       N/A     48  45  87 W14       29.83S
POPLAR           N/A     50  46  87 W7        29.88S
$$

MTZ028>42-056>058-221200-
SOUTHCENTRAL AND SOUTHEAST MONTANA

CITY           SKY/WX    TMP DP  RH WIND       PRES   REMARKS
BAKER          CLEAR     50  42  74 CALM      29.92R
BILLINGS       PTCLDY    52  41  66 CALM      30.02S
LIVINGSTON     CLEAR     47  27  45 SW9       30.07R
MILES CITY     CLEAR     51  41  68 NW9       29.93R
BIG TIMBER     CLEAR     54  25  32 W17       30.05F
FORSYTH          N/A     54  43  66 W3        29.96R
ROUNDUP          N/A     48  37  65 S6        29.93R
$$

REGIONAL REPORTS...DAKOTAS

CITY           SKY/WX    TMP DP  RH WIND       PRES   REMARKS
WILLISTON      PTCLDY    53  47  79 W8        29.84R
MINOT          CLOUDY    62  45  53 SW15      29.74S
DICKINSON      PTCLDY    45  40  82 W5        29.86R
BEACH          CLOUDY    48  46  93 S7        29.91F
CROSBY           N/A     52  46  82 W18       29.79R
TIOGA            N/A     52  52 100 W14       29.82R
WATFORD CITY     N/A     54  48  82 W9        29.83R
BISMARCK       CLOUDY    60  44  55 NW8       29.83R
GRAND FORKS    PTCLDY    53  46  77 SW5       29.69R
FARGO          CLOUDY    58  51  78 S6        29.70F
BUFFALO SD       N/A     56  43  61 NE22G32   29.81R
RAPID CITY     CLOUDY    56  49  77 N5        29.79F
$$

REGIONAL REPORTS...WYOMING/IDAHO/WASHINGTON

CITY           SKY/WX    TMP DP  RH WIND       PRES   REMARKS
GILLETTE       CLEAR     60  44  55 NW10      29.92R
SHERIDAN       PTCLDY    54  41  61 NW20      30.02R
BUFFALO WY     CLEAR     57  32  38 N17G29    29.99R
CODY           CLEAR     55  28  35 N12       30.06R
YELLOWSTONE LA   N/A     38  31  76 CALM      30.18R
IDAHO FALLS    CLEAR     50  42  74 MISG      30.05R
SALMON         CLEAR     48  34  57 SE6       30.14S
BOISE          CLEAR     58  32  37 CALM      30.05R
SPOKANE        CLEAR     58  36  43 N9        30.16R
$$

REGIONAL REPORTS...ALBERTA

CITY           SKY/WX    TMP DP  RH WIND       PRES   REMARKS
EDMONTON       CLOUDY    46  45  93 NW14G23   29.94R
CALGARY        MOCLDY    45  25  45 N14G22    30.03R
LETHBRIDGE     CLEAR     39  37  93 SW7       30.02R
MEDICINE HAT   CLEAR     45  39  81 W9        29.96R
WATERTON GATE    N/A     36  28  75 SW5         N/A
MILK RIVER       N/A     41  39  93 NW8         N/A
ONEFOUR          N/A     43  39  87 NW14        N/A
$$

REGIONAL REPORTS...SASKATCHEWAN

CITY           SKY/WX    TMP DP  RH WIND       PRES   REMARKS
SWIFT CURRENT  CLEAR     45  36  70 W15G22    29.84F
REGINA         PTCLDY    48  39  71 W18       29.73S
SASKATOON      LGT RAIN  48  43  81 W21G37    29.67R
ROCKGLEN         N/A     46  39  76 W13G20      N/A
ASSINIBOIA       N/A     48  46  93 NW23G33     N/A
$$




USA.gov is the U.S. government's official web portal to all federal, state and local government web resources and services.